Weather History for Tubuai, French Polynesia

Change the Weather History Date:

Wednesday, February 13, 2013

  Actual Average Record
Temperature  
Mean Temperature 76 °F -  
Max Temperature 80 °F - - ()
Min Temperature 73 °F - - ()
Cooling Degree Days 12    
Growing Degree Days 26 (Base 50)    
Moisture  
Dew Point 68 °F    
Average Humidity 72    
Maximum Humidity 81    
Minimum Humidity 65    
Precipitation  
Precipitation 0.00 in - - ()
Sea Level Pressure  
Sea Level Pressure 29.93 in    
Wind  
Wind Speed 14 mph ()    
Max Wind Speed 18 mph    
Max Gust Speed -    
T = Trace of Precipitation, MM = Missing Value Source: Averaged Metar Reports

Daily Weather History Graph

Daily Weather History Graph

Search for Another Location

Airport:

Trip Planner

Search our weather history database for the weather conditions in past years. The results will help you decide how hot, cold, wet, or windy it might be!

Date:

Astronomy

Feb. 13, 2013 Rise Set
Actual Time 5:45 AM TAHT 6:38 PM TAHT
Civil Twilight 5:21 AM TAHT 7:02 PM TAHT
Nautical Twilight 4:54 AM TAHT 7:29 PM TAHT
Astronomical Twilight 4:26 AM TAHT 7:57 PM TAHT
Moon 9:03 AM TAHT (2/13) 8:57 PM TAHT (2/13)
Length of Visible Light 13h 40m
Length of Day
12h 53m
Waxing Crescent, 15% of the Moon is Illuminated
Feb 13
Waxing Crescent
Feb 17
First Quarter
Feb 25
Full
Mar 4
Last Quarter
Mar 11
New

Hourly Weather History & Observations

Time (TAHT) Temp. Dew Point Humidity Pressure Visibility Wind Dir Wind Speed Gust Speed Precip Events Conditions
12:00 AM 74 °F 67 °F 71% 29.96 in - South 15.0 mph - -  
1:00 AM 74 °F 67 °F 73% 29.95 in - South 16.1 mph - -  
2:00 AM 74 °F 67 °F 73% 29.94 in - South 13.8 mph - -  
3:00 AM 74 °F 67 °F 73% 29.93 in - South 15.0 mph - -  
4:00 AM 74 °F 68 °F 75% 29.93 in - South 16.1 mph - -  
5:00 AM 74 °F 68 °F 75% 29.93 in - South 16.1 mph - -  
6:00 AM 74 °F 67 °F 73% 29.94 in - South 12.7 mph - -  
7:00 AM 73 °F 67 °F 77% 29.96 in - South 15.0 mph - -  
8:00 AM 76 °F 67 °F 66% 29.96 in - South 17.3 mph - -  
9:00 AM 77 °F 69 °F 69% 29.97 in - South 18.4 mph - -  
10:00 AM 79 °F 69 °F 65% 29.96 in - South 18.4 mph - -  
11:00 AM 78 °F 68 °F 65% 29.95 in - South 17.3 mph - -  
12:00 PM 78 °F 69 °F 67% 29.94 in - South 17.3 mph - -  
1:00 PM 77 °F 70 °F 72% 29.92 in - South 12.7 mph - -  
2:00 PM 78 °F 70 °F 71% 29.91 in - South 13.8 mph - -  
3:00 PM 79 °F 69 °F 65% 29.89 in - South 17.3 mph - -  
4:00 PM 77 °F 70 °F 74% 29.88 in - South 16.1 mph - -  
5:00 PM 77 °F 69 °F 71% 29.88 in - SSE 17.3 mph - -  
6:00 PM 76 °F 69 °F 73% 29.88 in - SSE 16.1 mph - -  
7:00 PM 75 °F 69 °F 75% 29.90 in - SSE 15.0 mph - -  
8:00 PM 75 °F 69 °F 77% 29.91 in - SSE 13.8 mph - -  
9:00 PM 75 °F 69 °F 78% 29.92 in - South 13.8 mph - -  
10:00 PM 74 °F 69 °F 81% 29.92 in - South 16.1 mph - -  
11:00 PM 75 °F 70 °F 80% 29.92 in - South 18.4 mph - -